owner,sensor,date,latitude,longitude,vertical_datum,sea_water_practical_salinity,qcFlag 
COMPS,ioos:station:USF.COMPS:ANC:1,2011-09-01T00:54:00Z,28.1930,-82.7890,0.0,24.3,1111122 
COMPS,ioos:station:USF.COMPS:ANC:1,2011-09-01T01:54:00Z,28.1930,-82.7890,0.0,22.58,1111122 
COMPS,ioos:station:USF.COMPS:ANC:1,2011-09-01T02:54:00Z,28.1930,-82.7890,0.0,21.039,1111122 
COMPS,ioos:station:USF.COMPS:ANC:1,2011-09-01T03:54:00Z,28.1930,-82.7890,0.0,21.136,1111122 
COMPS,ioos:station:USF.COMPS:ANC:1,2011-09-01T04:54:00Z,28.1930,-82.7890,0.0,23.329,1111122 
COMPS,ioos:station:USF.COMPS:ANC:1,2011-09-01T19:54:00Z,28.1930,-82.7890,0.0,24.875,1111122 
COMPS,ioos:station:USF.COMPS:ANC:1,2011-09-01T20:54:00Z,28.1930,-82.7890,0.0,25.431,1111122 
COMPS,ioos:station:USF.COMPS:ANC:1,2011-09-01T21:54:00Z,28.1930,-82.7890,0.0,25.651,1111122 
COMPS,ioos:station:USF.COMPS:ANC:1,2011-09-01T22:54:00Z,28.1930,-82.7890,0.0,25.59,1111122 
COMPS,ioos:station:USF.COMPS:ANC:1,2011-09-01T23:54:00Z,28.1930,-82.7890,0.0,25.457,1111122 
COMPS,ioos:station:USF.COMPS:ANC:1,2011-09-02T00:54:00Z,28.1930,-82.7890,0.0,24.8,1111122 
COMPS,ioos:station:USF.COMPS:ANC:1,2011-09-02T01:54:00Z,28.1930,-82.7890,0.0,23.569,1111122 
COMPS,ioos:station:USF.COMPS:ANC:1,2011-09-02T02:54:00Z,28.1930,-82.7890,0.0,21.897,1111122 
COMPS,ioos:station:USF.COMPS:ANC:1,2011-09-02T03:54:00Z,28.1930,-82.7890,0.0,20.676,1111122 
COMPS,ioos:station:USF.COMPS:ANC:1,2011-09-02T04:54:00Z,28.1930,-82.7890,0.0,22.144,1111122 
COMPS,ioos:station:USF.COMPS:ANC:1,2011-09-02T05:54:00Z,28.1930,-82.7890,0.0,23.856,1111122 
COMPS,ioos:station:USF.COMPS:ANC:1,2011-09-02T06:54:00Z,28.1930,-82.7890,0.0,24.701,1111122 
COMPS,ioos:station:USF.COMPS:ANC:1,2011-09-02T07:54:00Z,28.1930,-82.7890,0.0,25.221,1111122 
COMPS,ioos:station:USF.COMPS:ANC:1,2011-09-02T08:54:00Z,28.1930,-82.7890,0.0,25.502,1111122 
COMPS,ioos:station:USF.COMPS:ANC:1,2011-09-02T10:54:00Z,28.1930,-82.7890,0.0,25.761,1111122 
COMPS,ioos:station:USF.COMPS:ANC:1,2011-09-02T11:54:00Z,28.1930,-82.7890,0.0,25.833,1111122 
COMPS,ioos:station:USF.COMPS:ANC:1,2011-09-02T12:54:00Z,28.1930,-82.7890,0.0,25.654,1111122 
COMPS,ioos:station:USF.COMPS:ANC:1,2011-09-02T13:54:00Z,28.1930,-82.7890,0.0,24.976,1111122 
COMPS,ioos:station:USF.COMPS:ANC:1,2011-09-02T14:54:00Z,28.1930,-82.7890,0.0,23.317,1111122 
COMPS,ioos:station:USF.COMPS:ANC:1,2011-09-02T15:54:00Z,28.1930,-82.7890,0.0,21.572,1111122 
COMPS,ioos:station:USF.COMPS:ANC:1,2011-09-02T16:54:00Z,28.1930,-82.7890,0.0,19.819,1111122 
COMPS,ioos:station:USF.COMPS:ANC:1,2011-09-02T18:54:00Z,28.1930,-82.7890,0.0,23.277,1111122 
COMPS,ioos:station:USF.COMPS:ANC:1,2011-09-02T19:54:00Z,28.1930,-82.7890,0.0,24.76,1111122 
COMPS,ioos:station:USF.COMPS:ANC:1,2011-09-02T20:54:00Z,28.1930,-82.7890,0.0,25.39,1111122 
COMPS,ioos:station:USF.COMPS:ANC:1,2011-09-02T21:54:00Z,28.1930,-82.7890,0.0,25.646,1111122 
COMPS,ioos:station:USF.COMPS:ANC:1,2011-09-02T22:54:00Z,28.1930,-82.7890,0.0,25.577,1111122 
COMPS,ioos:station:USF.COMPS:ANC:1,2011-09-02T23:54:00Z,28.1930,-82.7890,0.0,25.523,1111122 
COMPS,ioos:station:USF.COMPS:ANC:1,2011-09-03T00:54:00Z,28.1930,-82.7890,0.0,25.156,1111122 
COMPS,ioos:station:USF.COMPS:ANC:1,2011-09-03T01:54:00Z,28.1930,-82.7890,0.0,24.639,1111122 
COMPS,ioos:station:USF.COMPS:ANC:1,2011-09-03T02:54:00Z,28.1930,-82.7890,0.0,24.185,1111122 
COMPS,ioos:station:USF.COMPS:ANC:1,2011-09-03T03:54:00Z,28.1930,-82.7890,0.0,23.698,1111122 
COMPS,ioos:station:USF.COMPS:ANC:1,2011-09-03T04:54:00Z,28.1930,-82.7890,0.0,23.596,1111122 
COMPS,ioos:station:USF.COMPS:ANC:1,2011-09-03T05:54:00Z,28.1930,-82.7890,0.0,24.424,1111122 
COMPS,ioos:station:USF.COMPS:ANC:1,2011-09-03T07:54:00Z,28.1930,-82.7890,0.0,25.818,1111122 
COMPS,ioos:station:USF.COMPS:ANC:1,2011-09-03T08:54:00Z,28.1930,-82.7890,0.0,25.968,1111122 
COMPS,ioos:station:USF.COMPS:ANC:1,2011-09-03T09:54:00Z,28.1930,-82.7890,0.0,26.032,1111122 
COMPS,ioos:station:USF.COMPS:ANC:1,2011-09-03T10:54:00Z,28.1930,-82.7890,0.0,26.084,1111122 
COMPS,ioos:station:USF.COMPS:ANC:1,2011-09-03T11:54:00Z,28.1930,-82.7890,0.0,26.189,1111122 
COMPS,ioos:station:USF.COMPS:ANC:1,2011-09-03T12:54:00Z,28.1930,-82.7890,0.0,26.21,1111122 
COMPS,ioos:station:USF.COMPS:ANC:1,2011-09-03T13:54:00Z,28.1930,-82.7890,0.0,25.89,1111122 
COMPS,ioos:station:USF.COMPS:ANC:1,2011-09-03T14:54:00Z,28.1930,-82.7890,0.0,25.087,1111122 
COMPS,ioos:station:USF.COMPS:ANC:1,2011-09-03T15:54:00Z,28.1930,-82.7890,0.0,23.844,1111122 
COMPS,ioos:station:USF.COMPS:ANC:1,2011-09-03T16:54:00Z,28.1930,-82.7890,0.0,22.367,1111122 
COMPS,ioos:station:USF.COMPS:ANC:1,2011-09-03T17:54:00Z,28.1930,-82.7890,0.0,21.076,1111122 
COMPS,ioos:station:USF.COMPS:ANC:1,2011-09-03T18:54:00Z,28.1930,-82.7890,0.0,20.423,1111122 
COMPS,ioos:station:USF.COMPS:ANC:1,2011-09-03T19:54:00Z,28.1930,-82.7890,0.0,21.299,1111122 
COMPS,ioos:station:USF.COMPS:ANC:1,2011-09-03T20:54:00Z,28.1930,-82.7890,0.0,22.939,1111122 
COMPS,ioos:station:USF.COMPS:ANC:1,2011-09-03T21:54:00Z,28.1930,-82.7890,0.0,24.394,1111122 
COMPS,ioos:station:USF.COMPS:ANC:1,2011-09-03T23:54:00Z,28.1930,-82.7890,0.0,25.359,1111122 
COMPS,ioos:station:USF.COMPS:ANC:1,2011-09-04T00:54:00Z,28.1930,-82.7890,0.0,25.585,1111122 
COMPS,ioos:station:USF.COMPS:ANC:1,2011-09-04T01:54:00Z,28.1930,-82.7890,0.0,25.563,1111122 
COMPS,ioos:station:USF.COMPS:ANC:1,2011-09-04T02:54:00Z,28.1930,-82.7890,0.0,24.65,1111122 
COMPS,ioos:station:USF.COMPS:ANC:1,2011-09-04T03:54:00Z,28.1930,-82.7890,0.0,23.883,1111122 
COMPS,ioos:station:USF.COMPS:ANC:1,2011-09-04T04:54:00Z,28.1930,-82.7890,0.0,23.829,1111122 
COMPS,ioos:station:USF.COMPS:ANC:1,2011-09-04T05:54:00Z,28.1930,-82.7890,0.0,24.666,1111122 
COMPS,ioos:station:USF.COMPS:ANC:1,2011-09-04T06:54:00Z,28.1930,-82.7890,0.0,25.415,1111122 
COMPS,ioos:station:USF.COMPS:ANC:1,2011-09-04T07:54:00Z,28.1930,-82.7890,0.0,25.832,1111122 
COMPS,ioos:station:USF.COMPS:ANC:1,2011-09-04T08:54:00Z,28.1930,-82.7890,0.0,26.059,1111122 
COMPS,ioos:station:USF.COMPS:ANC:1,2011-09-04T09:54:00Z,28.1930,-82.7890,0.0,26.194,1111122 
COMPS,ioos:station:USF.COMPS:ANC:1,2011-09-04T10:54:00Z,28.1930,-82.7890,0.0,26.358,1111122 
COMPS,ioos:station:USF.COMPS:ANC:1,2011-09-04T11:54:00Z,28.1930,-82.7890,0.0,26.481,1111122 
COMPS,ioos:station:USF.COMPS:ANC:1,2011-09-04T12:54:00Z,28.1930,-82.7890,0.0,26.534,1111122 
COMPS,ioos:station:USF.COMPS:ANC:1,2011-09-04T13:54:00Z,28.1930,-82.7890,0.0,26.483,1111122 
COMPS,ioos:station:USF.COMPS:ANC:1,2011-09-04T14:54:00Z,28.1930,-82.7890,0.0,26.055,1111122 
COMPS,ioos:station:USF.COMPS:ANC:1,2011-09-04T15:54:00Z,28.1930,-82.7890,0.0,25.516,1111122 
COMPS,ioos:station:USF.COMPS:ANC:1,2011-09-04T16:54:00Z,28.1930,-82.7890,0.0,24.247,1111122 
COMPS,ioos:station:USF.COMPS:ANC:1,2011-09-04T17:54:00Z,28.1930,-82.7890,0.0,22.672,1111122 
COMPS,ioos:station:USF.COMPS:ANC:1,2011-09-04T18:54:00Z,28.1930,-82.7890,0.0,21.824,1111122 
COMPS,ioos:station:USF.COMPS:ANC:1,2011-09-04T19:54:00Z,28.1930,-82.7890,0.0,21.432,1111122 
COMPS,ioos:station:USF.COMPS:ANC:1,2011-09-04T20:54:00Z,28.1930,-82.7890,0.0,22.056,1111122 
COMPS,ioos:station:USF.COMPS:ANC:1,2011-09-04T21:54:00Z,28.1930,-82.7890,0.0,23.682,1111122 
COMPS,ioos:station:USF.COMPS:ANC:1,2011-09-04T22:54:00Z,28.1930,-82.7890,0.0,24.472,1111122 
COMPS,ioos:station:USF.COMPS:ANC:1,2011-09-04T23:54:00Z,28.1930,-82.7890,0.0,25.009,1111122 
COMPS,ioos:station:USF.COMPS:ANC:1,2011-09-05T00:54:00Z,28.1930,-82.7890,0.0,25.418,1111122 
COMPS,ioos:station:USF.COMPS:ANC:1,2011-09-05T01:54:00Z,28.1930,-82.7890,0.0,25.727,1111122 
COMPS,ioos:station:USF.COMPS:ANC:1,2011-09-05T02:54:00Z,28.1930,-82.7890,0.0,25.973,1111122 
COMPS,ioos:station:USF.COMPS:ANC:1,2011-09-05T03:54:00Z,28.1930,-82.7890,0.0,26.073,1111122 
COMPS,ioos:station:USF.COMPS:ANC:1,2011-09-05T04:54:00Z,28.1930,-82.7890,0.0,25.87,1111122 
COMPS,ioos:station:USF.COMPS:ANC:1,2011-09-05T05:54:00Z,28.1930,-82.7890,0.0,25.536,1111122 
COMPS,ioos:station:USF.COMPS:ANC:1,2011-09-05T06:54:00Z,28.1930,-82.7890,0.0,25.699,1111122 
COMPS,ioos:station:USF.COMPS:ANC:1,2011-09-05T07:54:00Z,28.1930,-82.7890,0.0,26.025,1111122 
COMPS,ioos:station:USF.COMPS:ANC:1,2011-09-05T08:54:00Z,28.1930,-82.7890,0.0,26.391,1111122 
COMPS,ioos:station:USF.COMPS:ANC:1,2011-09-05T09:54:00Z,28.1930,-82.7890,0.0,26.507,1111122 
COMPS,ioos:station:USF.COMPS:ANC:1,2011-09-05T10:54:00Z,28.1930,-82.7890,0.0,26.586,1111122 
COMPS,ioos:station:USF.COMPS:ANC:1,2011-09-05T11:54:00Z,28.1930,-82.7890,0.0,26.715,1111122 
COMPS,ioos:station:USF.COMPS:ANC:1,2011-09-05T12:54:00Z,28.1930,-82.7890,0.0,26.811,1111122 
COMPS,ioos:station:USF.COMPS:ANC:1,2011-09-05T13:54:00Z,28.1930,-82.7890,0.0,26.878,1111122 
COMPS,ioos:station:USF.COMPS:ANC:1,2011-09-05T14:54:00Z,28.1930,-82.7890,0.0,26.867,1111122 
COMPS,ioos:station:USF.COMPS:ANC:1,2011-09-05T15:54:00Z,28.1930,-82.7890,0.0,26.417,1111122 
COMPS,ioos:station:USF.COMPS:ANC:1,2011-09-05T16:54:00Z,28.1930,-82.7890,0.0,24.972,1111122 
COMPS,ioos:station:USF.COMPS:ANC:1,2011-09-05T17:54:00Z,28.1930,-82.7890,0.0,23.798,1111122 
COMPS,ioos:station:USF.COMPS:ANC:1,2011-09-05T18:54:00Z,28.1930,-82.7890,0.0,22.663,1111122 
COMPS,ioos:station:USF.COMPS:ANC:1,2011-09-05T19:54:00Z,28.1930,-82.7890,0.0,22.134,1111122 
COMPS,ioos:station:USF.COMPS:ANC:1,2011-09-05T20:54:00Z,28.1930,-82.7890,0.0,22.696,1111122 
COMPS,ioos:station:USF.COMPS:ANC:1,2011-09-05T21:54:00Z,28.1930,-82.7890,0.0,24.781,1111122 
COMPS,ioos:station:USF.COMPS:ANC:1,2011-09-05T22:54:00Z,28.1930,-82.7890,0.0,26.171,1111122 
COMPS,ioos:station:USF.COMPS:ANC:1,2011-09-05T23:54:00Z,28.1930,-82.7890,0.0,26.689,1111122 
COMPS,ioos:station:USF.COMPS:ANC:1,2011-09-06T00:54:00Z,28.1930,-82.7890,0.0,26.658,1111122 
COMPS,ioos:station:USF.COMPS:ANC:1,2011-09-06T01:54:00Z,28.1930,-82.7890,0.0,26.577,1111122 
COMPS,ioos:station:USF.COMPS:ANC:1,2011-09-06T02:54:00Z,28.1930,-82.7890,0.0,26.489,1111122 
COMPS,ioos:station:USF.COMPS:ANC:1,2011-09-06T03:54:00Z,28.1930,-82.7890,0.0,26.364,1111122 
COMPS,ioos:station:USF.COMPS:ANC:1,2011-09-06T04:54:00Z,28.1930,-82.7890,0.0,26.386,1111122 
COMPS,ioos:station:USF.COMPS:ANC:1,2011-09-06T05:54:00Z,28.1930,-82.7890,0.0,26.299,1111122 
COMPS,ioos:station:USF.COMPS:ANC:1,2011-09-06T06:54:00Z,28.1930,-82.7890,0.0,26.347,1111122 
COMPS,ioos:station:USF.COMPS:ANC:1,2011-09-06T07:54:00Z,28.1930,-82.7890,0.0,26.512,1111122 
COMPS,ioos:station:USF.COMPS:ANC:1,2011-09-06T08:54:00Z,28.1930,-82.7890,0.0,26.667,1111122 
COMPS,ioos:station:USF.COMPS:ANC:1,2011-09-06T09:54:00Z,28.1930,-82.7890,0.0,26.371,1111122 
COMPS,ioos:station:USF.COMPS:ANC:1,2011-09-06T10:54:00Z,28.1930,-82.7890,0.0,26.144,1111122 
COMPS,ioos:station:USF.COMPS:ANC:1,2011-09-06T11:54:00Z,28.1930,-82.7890,0.0,26.267,1111122 
COMPS,ioos:station:USF.COMPS:ANC:1,2011-09-06T12:54:00Z,28.1930,-82.7890,0.0,26.153,1111122 
COMPS,ioos:station:USF.COMPS:ANC:1,2011-09-06T13:54:00Z,28.1930,-82.7890,0.0,26.068,1111122 
COMPS,ioos:station:USF.COMPS:ANC:1,2011-09-06T14:54:00Z,28.1930,-82.7890,0.0,25.949,1111122 
COMPS,ioos:station:USF.COMPS:ANC:1,2011-09-06T15:54:00Z,28.1930,-82.7890,0.0,25.944,1111122 
COMPS,ioos:station:USF.COMPS:ANC:1,2011-09-06T16:54:00Z,28.1930,-82.7890,0.0,25.88,1111122 
COMPS,ioos:station:USF.COMPS:ANC:1,2011-09-06T17:54:00Z,28.1930,-82.7890,0.0,25.457,1111122 
COMPS,ioos:station:USF.COMPS:ANC:1,2011-09-06T18:54:00Z,28.1930,-82.7890,0.0,24.437,1111122 
COMPS,ioos:station:USF.COMPS:ANC:1,2011-09-06T19:54:00Z,28.1930,-82.7890,0.0,23.133,1111122 
COMPS,ioos:station:USF.COMPS:ANC:1,2011-09-06T20:54:00Z,28.1930,-82.7890,0.0,22.327,1111122 
COMPS,ioos:station:USF.COMPS:ANC:1,2011-09-06T21:54:00Z,28.1930,-82.7890,0.0,20.883,1111122 
COMPS,ioos:station:USF.COMPS:ANC:1,2011-09-06T22:54:00Z,28.1930,-82.7890,0.0,19.51,1111122 
COMPS,ioos:station:USF.COMPS:ANC:1,2011-09-06T23:54:00Z,28.1930,-82.7890,0.0,19.651,1111122 
COMPS,ioos:station:USF.COMPS:ANC:1,2011-09-07T00:54:00Z,28.1930,-82.7890,0.0,20.771,1111122 
COMPS,ioos:station:USF.COMPS:ANC:1,2011-09-07T01:54:00Z,28.1930,-82.7890,0.0,22.017,1111122 
COMPS,ioos:station:USF.COMPS:ANC:1,2011-09-07T02:54:00Z,28.1930,-82.7890,0.0,23.244,1111122 
COMPS,ioos:station:USF.COMPS:ANC:1,2011-09-07T03:54:00Z,28.1930,-82.7890,0.0,23.988,1111122 
COMPS,ioos:station:USF.COMPS:ANC:1,2011-09-07T04:54:00Z,28.1930,-82.7890,0.0,24.318,1111122 
COMPS,ioos:station:USF.COMPS:ANC:1,2011-09-07T05:54:00Z,28.1930,-82.7890,0.0,24.386,1111122 
COMPS,ioos:station:USF.COMPS:ANC:1,2011-09-07T06:54:00Z,28.1930,-82.7890,0.0,23.728,1111122 
COMPS,ioos:station:USF.COMPS:ANC:1,2011-09-07T07:54:00Z,28.1930,-82.7890,0.0,22.38,1111122 
COMPS,ioos:station:USF.COMPS:ANC:1,2011-09-07T08:54:00Z,28.1930,-82.7890,0.0,22.51,1111122 
COMPS,ioos:station:USF.COMPS:ANC:1,2011-09-07T09:54:00Z,28.1930,-82.7890,0.0,22.593,1111122 
COMPS,ioos:station:USF.COMPS:ANC:1,2011-09-07T10:54:00Z,28.1930,-82.7890,0.0,22.496,1111122 
COMPS,ioos:station:USF.COMPS:ANC:1,2011-09-07T11:54:00Z,28.1930,-82.7890,0.0,22.99,1111122 
COMPS,ioos:station:USF.COMPS:ANC:1,2011-09-07T12:54:00Z,28.1930,-82.7890,0.0,23.755,1111122 
COMPS,ioos:station:USF.COMPS:ANC:1,2011-09-07T13:54:00Z,28.1930,-82.7890,0.0,24.457,1111122 
COMPS,ioos:station:USF.COMPS:ANC:1,2011-09-07T14:54:00Z,28.1930,-82.7890,0.0,24.758,1111122 
COMPS,ioos:station:USF.COMPS:ANC:1,2011-09-07T15:54:00Z,28.1930,-82.7890,0.0,24.89,1111122 
COMPS,ioos:station:USF.COMPS:ANC:1,2011-09-07T16:54:00Z,28.1930,-82.7890,0.0,24.392,1111122 
COMPS,ioos:station:USF.COMPS:ANC:1,2011-09-07T17:54:00Z,28.1930,-82.7890,0.0,22.112,1111122 
COMPS,ioos:station:USF.COMPS:ANC:1,2011-09-07T18:54:00Z,28.1930,-82.7890,0.0,20.855,1111122 
COMPS,ioos:station:USF.COMPS:ANC:1,2011-09-07T19:54:00Z,28.1930,-82.7890,0.0,19.224,1111122 
COMPS,ioos:station:USF.COMPS:ANC:1,2011-09-07T20:54:00Z,28.1930,-82.7890,0.0,16.834,1111122 
COMPS,ioos:station:USF.COMPS:ANC:1,2011-09-07T21:54:00Z,28.1930,-82.7890,0.0,14.861,1111122 
COMPS,ioos:station:USF.COMPS:ANC:1,2011-09-07T22:54:00Z,28.1930,-82.7890,0.0,13.635,1111122 
COMPS,ioos:station:USF.COMPS:ANC:1,2011-09-07T23:54:00Z,28.1930,-82.7890,0.0,17.198,1111122 
COMPS,ioos:station:USF.COMPS:ANC:1,2011-09-08T00:54:00Z,28.1930,-82.7890,0.0,20.258,1111122 
COMPS,ioos:station:USF.COMPS:ANC:1,2011-09-08T01:54:00Z,28.1930,-82.7890,0.0,22.253,1111122 
COMPS,ioos:station:USF.COMPS:ANC:1,2011-09-08T02:54:00Z,28.1930,-82.7890,0.0,23.007,1111122 
COMPS,ioos:station:USF.COMPS:ANC:1,2011-09-08T03:54:00Z,28.1930,-82.7890,0.0,23.648,1111122 
COMPS,ioos:station:USF.COMPS:ANC:1,2011-09-08T04:54:00Z,28.1930,-82.7890,0.0,23.887,1111122 
COMPS,ioos:station:USF.COMPS:ANC:1,2011-09-08T05:54:00Z,28.1930,-82.7890,0.0,24.259,1111122 
COMPS,ioos:station:USF.COMPS:ANC:1,2011-09-08T06:54:00Z,28.1930,-82.7890,0.0,24.294,1111122 
COMPS,ioos:station:USF.COMPS:ANC:1,2011-09-08T07:54:00Z,28.1930,-82.7890,0.0,22.633,1111122 
COMPS,ioos:station:USF.COMPS:ANC:1,2011-09-08T08:54:00Z,28.1930,-82.7890,0.0,20.74,1111122 
COMPS,ioos:station:USF.COMPS:ANC:1,2011-09-08T09:54:00Z,28.1930,-82.7890,0.0,20.036,1111122 
COMPS,ioos:station:USF.COMPS:ANC:1,2011-09-08T11:54:00Z,28.1930,-82.7890,0.0,21.843,1111122 
COMPS,ioos:station:USF.COMPS:ANC:1,2011-09-08T12:54:00Z,28.1930,-82.7890,0.0,22.963,1111122 
COMPS,ioos:station:USF.COMPS:ANC:1,2011-09-08T13:54:00Z,28.1930,-82.7890,0.0,22.771,1111122 
COMPS,ioos:station:USF.COMPS:ANC:1,2011-09-08T14:54:00Z,28.1930,-82.7890,0.0,23.023,1111122 
COMPS,ioos:station:USF.COMPS:ANC:1,2011-09-08T16:54:00Z,28.1930,-82.7890,0.0,23.506,1111122 
COMPS,ioos:station:USF.COMPS:ANC:1,2011-09-08T17:54:00Z,28.1930,-82.7890,0.0,23.603,1111122 
COMPS,ioos:station:USF.COMPS:ANC:1,2011-09-08T18:54:00Z,28.1930,-82.7890,0.0,22.668,1111122 
COMPS,ioos:station:USF.COMPS:ANC:1,2011-09-08T19:54:00Z,28.1930,-82.7890,0.0,20.772,1111122 
COMPS,ioos:station:USF.COMPS:ANC:1,2011-09-08T20:54:00Z,28.1930,-82.7890,0.0,18.996,1111122 
COMPS,ioos:station:USF.COMPS:ANC:1,2011-09-08T21:54:00Z,28.1930,-82.7890,0.0,17.06,1111122 
COMPS,ioos:station:USF.COMPS:ANC:1,2011-09-08T22:54:00Z,28.1930,-82.7890,0.0,14.764,1111122 
COMPS,ioos:station:USF.COMPS:ANC:1,2011-09-08T23:54:00Z,28.1930,-82.7890,0.0,13.178,1111122 
COMPS,ioos:station:USF.COMPS:ANC:1,2011-09-09T00:54:00Z,28.1930,-82.7890,0.0,12.305,1111122 
COMPS,ioos:station:USF.COMPS:ANC:1,2011-09-09T01:54:00Z,28.1930,-82.7890,0.0,16.245,1111122 
COMPS,ioos:station:USF.COMPS:ANC:1,2011-09-12T14:54:00Z,28.1930,-82.7890,0.0,15.788,1111122 
COMPS,ioos:station:USF.COMPS:ANC:1,2011-09-12T15:54:00Z,28.1930,-82.7890,0.0,20.073,1111122 
COMPS,ioos:station:USF.COMPS:ANC:1,2011-09-12T16:54:00Z,28.1930,-82.7890,0.0,21.851,1111122 
COMPS,ioos:station:USF.COMPS:ANC:1,2011-09-12T17:54:00Z,28.1930,-82.7890,0.0,22.585,1111122 
COMPS,ioos:station:USF.COMPS:ANC:1,2011-09-12T18:54:00Z,28.1930,-82.7890,0.0,22.403,1111122 
COMPS,ioos:station:USF.COMPS:ANC:1,2011-09-12T19:54:00Z,28.1930,-82.7890,0.0,22.235,1111122 
COMPS,ioos:station:USF.COMPS:ANC:1,2011-09-12T20:54:00Z,28.1930,-82.7890,0.0,22.395,1111122 
COMPS,ioos:station:USF.COMPS:ANC:1,2011-09-12T21:54:00Z,28.1930,-82.7890,0.0,21.742,1111122 
COMPS,ioos:station:USF.COMPS:ANC:1,2011-09-12T22:54:00Z,28.1930,-82.7890,0.0,19.883,1111122 
COMPS,ioos:station:USF.COMPS:ANC:1,2011-09-12T23:54:00Z,28.1930,-82.7890,0.0,17.023,1111122 
COMPS,ioos:station:USF.COMPS:ANC:1,2011-09-13T00:54:00Z,28.1930,-82.7890,0.0,15.35,1111122 
COMPS,ioos:station:USF.COMPS:ANC:1,2011-09-13T01:54:00Z,28.1930,-82.7890,0.0,15.699,1111122 
COMPS,ioos:station:USF.COMPS:ANC:1,2011-09-13T02:54:00Z,28.1930,-82.7890,0.0,16.921,1111122 
COMPS,ioos:station:USF.COMPS:ANC:1,2011-09-13T03:54:00Z,28.1930,-82.7890,0.0,19.874,1111122 
COMPS,ioos:station:USF.COMPS:ANC:1,2011-09-13T04:54:00Z,28.1930,-82.7890,0.0,21.389,1111122 
COMPS,ioos:station:USF.COMPS:ANC:1,2011-09-13T05:54:00Z,28.1930,-82.7890,0.0,22.261,1111122 
COMPS,ioos:station:USF.COMPS:ANC:1,2011-09-13T06:54:00Z,28.1930,-82.7890,0.0,22.639,1111122 
COMPS,ioos:station:USF.COMPS:ANC:1,2011-09-13T07:54:00Z,28.1930,-82.7890,0.0,22.471,1111122 
COMPS,ioos:station:USF.COMPS:ANC:1,2011-09-13T08:54:00Z,28.1930,-82.7890,0.0,22.373,1111122 
COMPS,ioos:station:USF.COMPS:ANC:1,2011-09-13T09:54:00Z,28.1930,-82.7890,0.0,22.276,1111122 
COMPS,ioos:station:USF.COMPS:ANC:1,2011-09-13T10:54:00Z,28.1930,-82.7890,0.0,20.751,1111122 
COMPS,ioos:station:USF.COMPS:ANC:1,2011-09-13T11:54:00Z,28.1930,-82.7890,0.0,17.051,1111122 
COMPS,ioos:station:USF.COMPS:ANC:1,2011-09-13T12:54:00Z,28.1930,-82.7890,0.0,14.148,1111122 
COMPS,ioos:station:USF.COMPS:ANC:1,2011-09-13T13:54:00Z,28.1930,-82.7890,0.0,12.487,1111122 
COMPS,ioos:station:USF.COMPS:ANC:1,2011-09-13T14:54:00Z,28.1930,-82.7890,0.0,16.567,1111122 
COMPS,ioos:station:USF.COMPS:ANC:1,2011-09-13T15:54:00Z,28.1930,-82.7890,0.0,19.784,1111122 
COMPS,ioos:station:USF.COMPS:ANC:1,2011-09-13T16:54:00Z,28.1930,-82.7890,0.0,21.377,1111122 
COMPS,ioos:station:USF.COMPS:ANC:1,2011-09-13T17:54:00Z,28.1930,-82.7890,0.0,22.19,1111122 
COMPS,ioos:station:USF.COMPS:ANC:1,2011-09-13T18:54:00Z,28.1930,-82.7890,0.0,21.713,1111122 
COMPS,ioos:station:USF.COMPS:ANC:1,2011-09-13T19:54:00Z,28.1930,-82.7890,0.0,21.481,1111122 
COMPS,ioos:station:USF.COMPS:ANC:1,2011-09-13T20:54:00Z,28.1930,-82.7890,0.0,21.54,1111122 
COMPS,ioos:station:USF.COMPS:ANC:1,2011-09-13T21:54:00Z,28.1930,-82.7890,0.0,21.476,1111122 
COMPS,ioos:station:USF.COMPS:ANC:1,2011-09-13T22:54:00Z,28.1930,-82.7890,0.0,20.336,1111122 
COMPS,ioos:station:USF.COMPS:ANC:1,2011-09-13T23:54:00Z,28.1930,-82.7890,0.0,18.504,1111122 
COMPS,ioos:station:USF.COMPS:ANC:1,2011-09-14T00:54:00Z,28.1930,-82.7890,0.0,16.049,1111122 
COMPS,ioos:station:USF.COMPS:ANC:1,2011-09-14T01:54:00Z,28.1930,-82.7890,0.0,14.791,1111122 
COMPS,ioos:station:USF.COMPS:ANC:1,2011-09-14T03:54:00Z,28.1930,-82.7890,0.0,20.84,1111122 
COMPS,ioos:station:USF.COMPS:ANC:1,2011-09-14T04:54:00Z,28.1930,-82.7890,0.0,21.595,1111122 
COMPS,ioos:station:USF.COMPS:ANC:1,2011-09-14T05:54:00Z,28.1930,-82.7890,0.0,21.988,1111122 
COMPS,ioos:station:USF.COMPS:ANC:1,2011-09-14T06:54:00Z,28.1930,-82.7890,0.0,22.054,1111122 
COMPS,ioos:station:USF.COMPS:ANC:1,2011-09-14T07:54:00Z,28.1930,-82.7890,0.0,21.731,1111122 
COMPS,ioos:station:USF.COMPS:ANC:1,2011-09-14T08:54:00Z,28.1930,-82.7890,0.0,21.542,1111122 
COMPS,ioos:station:USF.COMPS:ANC:1,2011-09-14T09:54:00Z,28.1930,-82.7890,0.0,21.586,1111122 
COMPS,ioos:station:USF.COMPS:ANC:1,2011-09-14T10:54:00Z,28.1930,-82.7890,0.0,21.357,1111122 
COMPS,ioos:station:USF.COMPS:ANC:1,2011-09-14T11:54:00Z,28.1930,-82.7890,0.0,19.98,1111122 
COMPS,ioos:station:USF.COMPS:ANC:1,2011-09-14T12:54:00Z,28.1930,-82.7890,0.0,17.253,1111122 
COMPS,ioos:station:USF.COMPS:ANC:1,2011-09-14T13:54:00Z,28.1930,-82.7890,0.0,14.641,1111122 
COMPS,ioos:station:USF.COMPS:ANC:1,2011-09-14T14:54:00Z,28.1930,-82.7890,0.0,13.018,1111122 
COMPS,ioos:station:USF.COMPS:ANC:1,2011-09-14T15:54:00Z,28.1930,-82.7890,0.0,16.225,1111122 
COMPS,ioos:station:USF.COMPS:ANC:1,2011-09-14T16:54:00Z,28.1930,-82.7890,0.0,19.572,1111122 
COMPS,ioos:station:USF.COMPS:ANC:1,2011-09-14T17:54:00Z,28.1930,-82.7890,0.0,20.907,1111122 
COMPS,ioos:station:USF.COMPS:ANC:1,2011-09-14T18:54:00Z,28.1930,-82.7890,0.0,21.542,1111122 
COMPS,ioos:station:USF.COMPS:ANC:1,2011-09-14T19:54:00Z,28.1930,-82.7890,0.0,21.92,1111122 
COMPS,ioos:station:USF.COMPS:ANC:1,2011-09-14T20:54:00Z,28.1930,-82.7890,0.0,22.106,1111122 
COMPS,ioos:station:USF.COMPS:ANC:1,2011-09-14T21:54:00Z,28.1930,-82.7890,0.0,22.04,1111122 
COMPS,ioos:station:USF.COMPS:ANC:1,2011-09-14T22:54:00Z,28.1930,-82.7890,0.0,21.534,1111122 
COMPS,ioos:station:USF.COMPS:ANC:1,2011-09-14T23:54:00Z,28.1930,-82.7890,0.0,19.814,1111122 
COMPS,ioos:station:USF.COMPS:ANC:1,2011-09-15T00:54:00Z,28.1930,-82.7890,0.0,18.029,1111122 
COMPS,ioos:station:USF.COMPS:ANC:1,2011-09-15T01:54:00Z,28.1930,-82.7890,0.0,17.074,1111122 
COMPS,ioos:station:USF.COMPS:ANC:1,2011-09-15T02:54:00Z,28.1930,-82.7890,0.0,19.931,1111122 
COMPS,ioos:station:USF.COMPS:ANC:1,2011-09-15T03:54:00Z,28.1930,-82.7890,0.0,21.311,1111122 
COMPS,ioos:station:USF.COMPS:ANC:1,2011-09-15T04:54:00Z,28.1930,-82.7890,0.0,21.818,1111122 
COMPS,ioos:station:USF.COMPS:ANC:1,2011-09-15T05:54:00Z,28.1930,-82.7890,0.0,22.079,1111122 
COMPS,ioos:station:USF.COMPS:ANC:1,2011-09-15T06:54:00Z,28.1930,-82.7890,0.0,22.395,1111122 
COMPS,ioos:station:USF.COMPS:ANC:1,2011-09-15T07:54:00Z,28.1930,-82.7890,0.0,22.703,1111122 
COMPS,ioos:station:USF.COMPS:ANC:1,2011-09-15T08:54:00Z,28.1930,-82.7890,0.0,22.711,1111122 
COMPS,ioos:station:USF.COMPS:ANC:1,2011-09-15T09:54:00Z,28.1930,-82.7890,0.0,22.715,1111122 
COMPS,ioos:station:USF.COMPS:ANC:1,2011-09-15T10:54:00Z,28.1930,-82.7890,0.0,22.243,1111122 
COMPS,ioos:station:USF.COMPS:ANC:1,2011-09-15T12:54:00Z,28.1930,-82.7890,0.0,18.497,1111122 
COMPS,ioos:station:USF.COMPS:ANC:1,2011-09-15T13:54:00Z,28.1930,-82.7890,0.0,16.455,1111122 
COMPS,ioos:station:USF.COMPS:ANC:1,2011-09-15T14:54:00Z,28.1930,-82.7890,0.0,14.886,1111122 
COMPS,ioos:station:USF.COMPS:ANC:1,2011-09-15T15:54:00Z,28.1930,-82.7890,0.0,15.299,1111122 
COMPS,ioos:station:USF.COMPS:ANC:1,2011-09-15T17:54:00Z,28.1930,-82.7890,0.0,20.841,1111122 
COMPS,ioos:station:USF.COMPS:ANC:1,2011-09-15T18:54:00Z,28.1930,-82.7890,0.0,21.494,1111122 
COMPS,ioos:station:USF.COMPS:ANC:1,2011-09-15T19:54:00Z,28.1930,-82.7890,0.0,22.01,1111122 
COMPS,ioos:station:USF.COMPS:ANC:1,2011-09-15T20:54:00Z,28.1930,-82.7890,0.0,22.205,1111122 
COMPS,ioos:station:USF.COMPS:ANC:1,2011-09-15T21:54:00Z,28.1930,-82.7890,0.0,22.525,1111122 
COMPS,ioos:station:USF.COMPS:ANC:1,2011-09-15T22:54:00Z,28.1930,-82.7890,0.0,22.387,1111122 
COMPS,ioos:station:USF.COMPS:ANC:1,2011-09-15T23:54:00Z,28.1930,-82.7890,0.0,20.998,1111122 
COMPS,ioos:station:USF.COMPS:ANC:1,2011-09-16T00:54:00Z,28.1930,-82.7890,0.0,19.092,1111122 
COMPS,ioos:station:USF.COMPS:ANC:1,2011-09-16T01:54:00Z,28.1930,-82.7890,0.0,17.875,1111122 
COMPS,ioos:station:USF.COMPS:ANC:1,2011-09-16T02:54:00Z,28.1930,-82.7890,0.0,20.679,1111122 
COMPS,ioos:station:USF.COMPS:ANC:1,2011-09-16T03:54:00Z,28.1930,-82.7890,0.0,21.939,1111122 